| time (UTC) | temp F | wind direction | speed MPH | gust MPH | rain 1hr in | rain 24hr in | rain mn in | humidity % | barometer mb |
| 20260507063330 | 69 | 131 | 3.0 | 5.0 | 0.00 | 0.00 | 0.00 | 10 | 1019.7 |
| 20260507062827 | 69 | 67 | 1.0 | 2.0 | 0.00 | 0.00 | 0.00 | 10 | 1019.7 |
| 20260507062324 | 69 | 55 | 0.0 | 0.0 | 0.00 | 0.00 | 0.00 | 10 | 1019.7 |
| 20260507061822 | 70 | 100 | 2.0 | 3.0 | 0.00 | 0.00 | 0.00 | 10 | 1019.6 |
| 20260507061319 | 70 | 147 | 3.0 | 5.0 | 0.00 | 0.00 | 0.00 | 10 | 1019.4 |
| 20260507060817 | 71 | 113 | 3.0 | 5.0 | 0.00 | 0.00 | 0.00 | 10 | 1019.5 |
| 20260507060314 | 71 | 93 | 8.0 | 10.0 | 0.00 | 0.00 | 0.00 | 10 | 1019.7 |
| 20260507055810 | 71 | 185 | 6.0 | 8.0 | 0.00 | 0.00 | 0.00 | 10 | 1019.5 |
| 20260507055306 | 71 | 122 | 8.0 | 10.0 | 0.00 | 0.00 | 0.00 | 10 | 1019.4 |
| 20260507054803 | 72 | 135 | 7.0 | 8.0 | 0.00 | 0.00 | 0.00 | 10 | 1019.3 |
| 20260507054259 | 72 | 114 | 5.0 | 8.0 | 0.00 | 0.00 | 0.00 | 10 | 1019.4 |
| 20260507053756 | 72 | 73 | 6.0 | 14.0 | 0.00 | 0.00 | 0.00 | 10 | 1019.1 |
| 20260507053254 | 72 | 106 | 11.0 | 13.0 | 0.00 | 0.00 | 0.00 | 10 | 1019.2 |
| 20260507052753 | 72 | 175 | 8.0 | 11.0 | 0.00 | 0.00 | 0.00 | 10 | 1019.3 |
| 20260507052249 | 72 | 151 | 12.0 | 15.0 | 0.00 | 0.00 | 0.00 | 10 | 1019.3 |
| 20260507051747 | 72 | 37 | 6.0 | 9.0 | 0.00 | 0.00 | 0.00 | 10 | 1019.1 |
| 20260507051244 | 72 | 6 | 9.0 | 11.0 | 0.00 | 0.00 | 0.00 | 10 | 1019.0 |
| 20260507050741 | 72 | 97 | 6.0 | 8.0 | 0.00 | 0.00 | 0.00 | 10 | 1019.0 |
| 20260507050237 | 72 | 122 | 7.0 | 11.0 | 0.00 | 0.00 | 0.00 | 10 | 1019.2 |
| 20260507045734 | 72 | 102 | 9.0 | 14.0 | 0.00 | 0.00 | 0.00 | 10 | 1019.0 |
| 20260507045230 | 72 | 61 | 6.0 | 9.0 | 0.00 | 0.00 | 0.00 | 10 | 1018.9 |
| 20260507044727 | 72 | 109 | 6.0 | 8.0 | 0.00 | 0.00 | 0.00 | 10 | 1019.0 |
| 20260507044223 | 72 | 129 | 8.0 | 10.0 | 0.00 | 0.00 | 0.00 | 10 | 1019.0 |
| 20260507043720 | 73 | 46 | 7.0 | 13.0 | 0.00 | 0.00 | 0.00 | 10 | 1019.0 |
| 20260507043217 | 73 | 83 | 7.0 | 14.0 | 0.00 | 0.00 | 0.00 | 10 | 1019.0 |
| 20260507042713 | 73 | 98 | 6.0 | 8.0 | 0.00 | 0.00 | 0.00 | 10 | 1018.8 |
| 20260507042208 | 73 | 95 | 6.0 | 8.0 | 0.00 | 0.00 | 0.00 | 10 | 1018.8 |
| 20260507041706 | 73 | 111 | 5.0 | 6.0 | 0.00 | 0.00 | 0.00 | 10 | 1018.4 |
| 20260507041203 | 73 | 61 | 8.0 | 10.0 | 0.00 | 0.00 | 0.00 | 10 | 1018.5 |
| 20260507040700 | 73 | 118 | 7.0 | 11.0 | 0.00 | 0.00 | 0.00 | 10 | 1018.4 |
| 20260507040156 | 73 | 85 | 11.0 | 14.0 | 0.00 | 0.00 | 0.00 | 10 | 1018.2 |
| 20260507035652 | 73 | 113 | 7.0 | 9.0 | 0.00 | 0.00 | 0.00 | 10 | 1018.5 |
| 20260507035148 | 74 | 64 | 6.0 | 10.0 | 0.00 | 0.00 | 0.00 | 10 | 1018.5 |
| 20260507034645 | 74 | 38 | 5.0 | 7.0 | 0.00 | 0.00 | 0.00 | 10 | 1018.3 |
| 20260507034142 | 74 | 59 | 5.0 | 7.0 | 0.00 | 0.00 | 0.00 | 10 | 1018.1 |
| 20260507033641 | 74 | 126 | 8.0 | 13.0 | 0.00 | 0.00 | 0.00 | 10 | 1018.3 |
| 20260507033138 | 74 | 133 | 7.0 | 9.0 | 0.00 | 0.00 | 0.00 | 10 | 1018.0 |
| 20260507032635 | 74 | 104 | 4.0 | 6.0 | 0.00 | 0.00 | 0.00 | 10 | 1018.1 |
| 20260507032131 | 74 | 137 | 10.0 | 13.0 | 0.00 | 0.00 | 0.00 | 10 | 1017.7 |
| 20260507031628 | 75 | 44 | 6.0 | 9.0 | 0.00 | 0.00 | 0.00 | 10 | 1017.8 |
| 20260507031124 | 75 | 33 | 7.0 | 9.0 | 0.00 | 0.00 | 0.00 | 10 | 1017.8 |
| 20260507030621 | 75 | 69 | 9.0 | 15.0 | 0.00 | 0.00 | 0.00 | 10 | 1017.6 |
| 20260507030119 | 75 | 28 | 8.0 | 9.0 | 0.00 | 0.00 | 0.00 | 10 | 1017.5 |
| 20260507025615 | 75 | 108 | 2.0 | 3.0 | 0.00 | 0.00 | 0.00 | 10 | 1017.2 |
| 20260507025113 | 75 | 11 | 9.0 | 13.0 | 0.00 | 0.00 | 0.00 | 10 | 1017.3 |
| 20260507024611 | 75 | 20 | 7.0 | 10.0 | 0.00 | 0.00 | 0.00 | 10 | 1017.3 |
| 20260507024108 | 76 | 163 | 6.0 | 10.0 | 0.00 | 0.00 | 0.00 | 10 | 1017.2 |
| 20260507023603 | 76 | 64 | 9.0 | 11.0 | 0.00 | 0.00 | 0.00 | 10 | 1017.2 |
| 20260507023101 | 76 | 79 | 5.0 | 7.0 | 0.00 | 0.00 | 0.00 | 10 | 1017.0 |
| 20260507022557 | 76 | 55 | 7.0 | 9.0 | 0.00 | 0.00 | 0.00 | 10 | 1017.1 |
| 20260507022052 | 77 | 62 | 9.0 | 13.0 | 0.00 | 0.00 | 0.00 | 10 | 1017.0 |
| 20260507021549 | 77 | 38 | 6.0 | 8.0 | 0.00 | 0.00 | 0.00 | 10 | 1017.1 |
| 20260507021045 | 77 | 112 | 5.0 | 11.0 | 0.00 | 0.00 | 0.00 | 10 | 1017.1 |
| 20260507020543 | 78 | 97 | 4.0 | 8.0 | 0.00 | 0.00 | 0.00 | 10 | 1017.1 |
| 20260507020039 | 78 | 42 | 5.0 | 6.0 | 0.00 | 0.00 | 0.00 | 10 | 1017.0 |
| 20260507015538 | 78 | 131 | 8.0 | 13.0 | 0.00 | 0.00 | 0.00 | 10 | 1016.8 |
| 20260507015035 | 78 | 12 | 8.0 | 13.0 | 0.00 | 0.00 | 0.00 | 10 | 1016.7 |
| 20260507014531 | 79 | 101 | 5.0 | 8.0 | 0.00 | 0.00 | 0.00 | 10 | 1016.9 |
| 20260507014027 | 79 | 112 | 7.0 | 15.0 | 0.00 | 0.00 | 0.00 | 10 | 1017.0 |
| 20260507013524 | 79 | 83 | 8.0 | 11.0 | 0.00 | 0.00 | 0.00 | 10 | 1016.9 |
| 20260507013021 | 79 | 56 | 4.0 | 6.0 | 0.00 | 0.00 | 0.00 | 10 | 1016.9 |
| 20260507012519 | 80 | 53 | 5.0 | 7.0 | 0.00 | 0.00 | 0.00 | 10 | 1016.8 |
| 20260507012015 | 79 | 35 | 9.0 | 14.0 | 0.00 | 0.00 | 0.00 | 10 | 1016.8 |
| 20260507011512 | 80 | 120 | 5.0 | 6.0 | 0.00 | 0.00 | 0.00 | 10 | 1016.7 |
| 20260507011008 | 80 | 164 | 4.0 | 6.0 | 0.00 | 0.00 | 0.00 | 10 | 1016.7 |
| 20260507010503 | 80 | 86 | 6.0 | 8.0 | 0.00 | 0.00 | 0.00 | 10 | 1016.8 |
| 20260507005959 | 80 | 141 | 3.0 | 6.0 | 0.00 | 0.00 | 0.00 | 10 | 1016.7 |
| 20260507005457 | 81 | 56 | 4.0 | 6.0 | 0.00 | 0.00 | 0.00 | 10 | 1016.6 |
| 20260507004953 | 81 | 79 | 7.0 | 10.0 | 0.00 | 0.00 | 0.00 | 10 | 1016.6 |
| 20260507004450 | 81 | 121 | 4.0 | 5.0 | 0.00 | 0.00 | 0.00 | 10 | 1016.5 |
| 20260507003948 | 81 | 121 | 4.0 | 6.0 | 0.00 | 0.00 | 0.00 | 10 | 1016.7 |
| 20260507003443 | 82 | 48 | 6.0 | 8.0 | 0.00 | 0.00 | 0.00 | 10 | 1016.8 |
| 20260507002938 | 81 | 69 | 6.0 | 9.0 | 0.00 | 0.00 | 0.00 | 10 | 1016.7 |
| 20260507002435 | 82 | 154 | 9.0 | 10.0 | 0.00 | 0.00 | 0.00 | 10 | 1016.6 |
| 20260507001931 | 82 | 157 | 3.0 | 5.0 | 0.00 | 0.00 | 0.00 | 10 | 1016.3 |
| 20260507001428 | 82 | 107 | 3.0 | 3.0 | 0.00 | 0.00 | 0.00 | 10 | 1016.4 |
| 20260507000926 | 82 | 83 | 7.0 | 10.0 | 0.00 | 0.00 | 0.00 | 10 | 1016.4 |
| 20260507000421 | 82 | 16 | 3.0 | 5.0 | 0.00 | 0.00 | 0.00 | 10 | 1016.4 |
| 20260506235917 | 82 | 67 | 5.0 | 8.0 | 0.00 | 0.00 | 0.00 | 10 | 1016.3 |
| 20260506235415 | 81 | 14 | 7.0 | 11.0 | 0.00 | 0.00 | 0.00 | 10 | 1016.3 |
| 20260506234910 | 82 | 65 | 7.0 | 11.0 | 0.00 | 0.00 | 0.00 | 10 | 1016.2 |
| 20260506234408 | 82 | 31 | 6.0 | 8.0 | 0.00 | 0.00 | 0.00 | 10 | 1016.2 |
| 20260506233906 | 82 | 23 | 7.0 | 9.0 | 0.00 | 0.00 | 0.00 | 10 | 1016.2 |
| 20260506233401 | 82 | 14 | 11.0 | 15.0 | 0.00 | 0.00 | 0.00 | 10 | 1015.8 |
| 20260506232858 | 83 | 64 | 10.0 | 13.0 | 0.00 | 0.00 | 0.00 | 10 | 1015.8 |
| 20260506232354 | 83 | 44 | 6.0 | 8.0 | 0.00 | 0.00 | 0.00 | 10 | 1016.0 |
| 20260506231850 | 83 | 81 | 6.0 | 11.0 | 0.00 | 0.00 | 0.00 | 10 | 1015.9 |
| 20260506231348 | 82 | 62 | 3.0 | 5.0 | 0.00 | 0.00 | 0.00 | 10 | 1016.0 |
| 20260506230845 | 83 | 163 | 0.0 | 1.0 | 0.00 | 0.00 | 0.00 | 10 | 1016.0 |
| 20260506230342 | 82 | 51 | 6.0 | 7.0 | 0.00 | 0.00 | 0.00 | 10 | 1015.8 |
| 20260506225838 | 81 | 41 | 3.0 | 3.0 | 0.00 | 0.00 | 0.00 | 10 | 1015.8 |
| 20260506225336 | 83 | 164 | 3.0 | 7.0 | 0.00 | 0.00 | 0.00 | 10 | 1015.9 |
| 20260506224833 | 82 | 42 | 3.0 | 3.0 | 0.00 | 0.00 | 0.00 | 10 | 1015.9 |
| 20260506224330 | 82 | 358 | 3.0 | 3.0 | 0.00 | 0.00 | 0.00 | 10 | 1015.9 |
| 20260506223826 | 82 | 7 | 6.0 | 7.0 | 0.00 | 0.00 | 0.00 | 10 | 1016.0 |
| 20260506223321 | 82 | 4 | 7.0 | 10.0 | 0.00 | 0.00 | 0.00 | 10 | 1016.2 |
| 20260506222819 | 82 | 6 | 6.0 | 7.0 | 0.00 | 0.00 | 0.00 | 10 | 1016.3 |
| 20260506222314 | 82 | 9 | 5.0 | 8.0 | 0.00 | 0.00 | 0.00 | 10 | 1016.2 |
| 20260506221813 | 83 | 48 | 4.0 | 5.0 | 0.00 | 0.00 | 0.00 | 10 | 1016.2 |
| 20260506221310 | 82 | 21 | 4.0 | 6.0 | 0.00 | 0.00 | 0.00 | 10 | 1016.4 |
| 20260506220807 | 83 | 103 | 16.0 | 23.0 | 0.00 | 0.00 | 0.00 | 10 | 1015.6 |
| 20260506220302 | 82 | 43 | 5.0 | 6.0 | 0.00 | 0.00 | 0.00 | 10 | 1016.4 |
| 20260506215759 | 83 | 39 | 7.0 | 9.0 | 0.00 | 0.00 | 0.00 | 10 | 1016.4 |
| 20260506215255 | 84 | 74 | 2.0 | 3.0 | 0.00 | 0.00 | 0.00 | 10 | 1016.3 |
| 20260506214751 | 83 | 151 | 1.0 | 3.0 | 0.00 | 0.00 | 0.00 | 10 | 1016.4 |
| 20260506214248 | 82 | 155 | 2.0 | 3.0 | 0.00 | 0.00 | 0.00 | 10 | 1016.4 |
| 20260506213746 | 82 | 63 | 1.0 | 1.0 | 0.00 | 0.00 | 0.00 | 10 | 1016.6 |
| 20260506213243 | 83 | 9 | 9.0 | 11.0 | 0.00 | 0.00 | 0.00 | 10 | 1016.6 |
| 20260506212740 | 83 | 76 | 2.0 | 2.0 | 0.00 | 0.00 | 0.00 | 10 | 1016.5 |
| 20260506212236 | 82 | 133 | 1.0 | 2.0 | 0.00 | 0.00 | 0.00 | 10 | 1016.6 |
| 20260506211732 | 81 | 328 | 5.0 | 6.0 | 0.00 | 0.00 | 0.00 | 10 | 1016.7 |
| 20260506211228 | 81 | 278 | 0.0 | 0.0 | 0.00 | 0.00 | 0.00 | 10 | 1016.8 |
| 20260506210725 | 82 | 126 | 2.0 | 3.0 | 0.00 | 0.00 | 0.00 | 10 | 1016.7 |
| 20260506210222 | 82 | 280 | 2.0 | 2.0 | 0.00 | 0.00 | 0.00 | 10 | 1016.5 |
| 20260506205719 | 81 | 179 | 0.0 | 1.0 | 0.00 | 0.00 | 0.00 | 10 | 1016.7 |
| 20260506205214 | 81 | 231 | 4.0 | 6.0 | 0.00 | 0.00 | 0.00 | 10 | 1016.6 |
| 20260506204712 | 81 | 48 | 2.0 | 2.0 | 0.00 | 0.00 | 0.00 | 10 | 1016.9 |
| 20260506204209 | 80 | 40 | 5.0 | 6.0 | 0.00 | 0.00 | 0.00 | 10 | 1017.0 |
| 20260506203707 | 81 | 51 | 4.0 | 7.0 | 0.00 | 0.00 | 0.00 | 10 | 1016.7 |
| 20260506203204 | 78 | 116 | 3.0 | 5.0 | 0.00 | 0.00 | 0.00 | 10 | 1016.8 |
| 20260506202702 | 79 | 249 | 3.0 | 3.0 | 0.00 | 0.00 | 0.00 | 10 | 1017.0 |
| 20260506202157 | 81 | 91 | 3.0 | 3.0 | 0.00 | 0.00 | 0.00 | 10 | 1016.8 |
| 20260506201655 | 81 | 145 | 2.0 | 3.0 | 0.00 | 0.00 | 0.00 | 10 | 1017.0 |
| 20260506201150 | 82 | 166 | 0.0 | 1.0 | 0.00 | 0.00 | 0.00 | 10 | 1017.0 |
| 20260506200648 | 83 | 152 | 0.0 | 1.0 | 0.00 | 0.00 | 0.00 | 10 | 1017.1 |
| 20260506200144 | 82 | 145 | 4.0 | 5.0 | 0.00 | 0.00 | 0.00 | 10 | 1017.2 |
| 20260506195641 | 81 | 172 | 0.0 | 0.0 | 0.00 | 0.00 | 0.00 | 10 | 1017.3 |
| 20260506195137 | 78 | 182 | 5.0 | 7.0 | 0.00 | 0.00 | 0.00 | 10 | 1017.1 |
| 20260506194635 | 77 | 241 | 8.0 | 9.0 | 0.00 | 0.00 | 0.00 | 10 | 1017.3 |
| 20260506194131 | 78 | 284 | 3.0 | 3.0 | 0.00 | 0.00 | 0.00 | 10 | 1017.2 |
| 20260506193629 | 78 | 262 | 3.0 | 3.0 | 0.00 | 0.00 | 0.00 | 10 | 1017.2 |
| 20260506193126 | 81 | 187 | 3.0 | 5.0 | 0.00 | 0.00 | 0.00 | 10 | 1017.5 |
| 20260506192622 | 79 | 64 | 0.0 | 1.0 | 0.00 | 0.00 | 0.00 | 10 | 1017.5 |
| 20260506192118 | 80 | 121 | 3.0 | 5.0 | 0.00 | 0.00 | 0.00 | 10 | 1017.7 |
| 20260506191615 | 78 | 161 | 1.0 | 5.0 | 0.00 | 0.00 | 0.00 | 10 | 1017.3 |
| 20260506191111 | 79 | 147 | 2.0 | 2.0 | 0.00 | 0.00 | 0.00 | 10 | 1017.7 |
| 20260506190609 | 79 | 122 | 4.0 | 6.0 | 0.00 | 0.00 | 0.00 | 10 | 1017.6 |
| 20260506190105 | 78 | 138 | 1.0 | 2.0 | 0.00 | 0.00 | 0.00 | 10 | 1017.5 |
| 20260506185602 | 78 | 110 | 6.0 | 8.0 | 0.00 | 0.00 | 0.00 | 10 | 1017.8 |
| 20260506185053 | 78 | 150 | 1.0 | 1.0 | 0.00 | 0.00 | 0.00 | 10 | 1017.8 |
| 20260506184551 | 78 | 112 | 4.0 | 5.0 | 0.00 | 0.00 | 0.00 | 10 | 1017.9 |
| 20260506184048 | 79 | 141 | 1.0 | 2.0 | 0.00 | 0.00 | 0.00 | 10 | 1017.8 |
| 20260506183544 | 77 | 131 | 4.0 | 6.0 | 0.00 | 0.00 | 0.00 | 10 | 1017.9 |
| 20260506183041 | 76 | 146 | 0.0 | 0.0 | 0.00 | 0.00 | 0.00 | 10 | 1017.9 |
| 20260506182538 | 75 | 216 | 0.0 | 1.0 | 0.00 | 0.00 | 0.00 | 10 | 1018.1 |
| 20260506182035 | 74 | 17 | 3.0 | 3.0 | 0.00 | 0.00 | 0.00 | 10 | 1018.2 |
| 20260506181533 | 77 | 228 | 3.0 | 5.0 | 0.00 | 0.00 | 0.00 | 10 | 1018.0 |
| 20260506181029 | 74 | 97 | 1.0 | 2.0 | 0.00 | 0.00 | 0.00 | 10 | 1018.4 |
| 20260506180526 | 73 | 322 | 6.0 | 7.0 | 0.00 | 0.00 | 0.00 | 10 | 1018.1 |
| 20260506180023 | 72 | 307 | 3.0 | 5.0 | 0.00 | 0.00 | 0.00 | 10 | 1018.0 |
| 20260506175519 | 72 | 207 | 2.0 | 2.0 | 0.00 | 0.00 | 0.00 | 10 | 1018.3 |
| 20260506175016 | 74 | 269 | 7.0 | 8.0 | 0.00 | 0.00 | 0.00 | 10 | 1018.3 |
| 20260506174515 | 72 | 224 | 5.0 | 6.0 | 0.00 | 0.00 | 0.00 | 10 | 1018.0 |
| 20260506174010 | 74 | 223 | 3.0 | 3.0 | 0.00 | 0.00 | 0.00 | 10 | 1018.3 |
| 20260506173508 | 72 | 210 | 3.0 | 5.0 | 0.00 | 0.00 | 0.00 | 10 | 1018.4 |
| 20260506173005 | 71 | 231 | 6.0 | 7.0 | 0.00 | 0.00 | 0.00 | 10 | 1018.4 |
| 20260506172502 | 71 | 267 | 4.0 | 5.0 | 0.00 | 0.00 | 0.00 | 10 | 1018.5 |
| 20260506171958 | 71 | 271 | 4.0 | 6.0 | 0.00 | 0.00 | 0.00 | 10 | 1018.4 |
| 20260506171455 | 71 | 167 | 2.0 | 2.0 | 0.00 | 0.00 | 0.00 | 10 | 1018.3 |
| 20260506170953 | 70 | 233 | 9.0 | 10.0 | 0.00 | 0.00 | 0.00 | 10 | 1018.2 |
| 20260506170450 | 70 | 168 | 0.0 | 1.0 | 0.00 | 0.00 | 0.00 | 10 | 1018.1 |
| 20260506165948 | 69 | 220 | 3.0 | 3.0 | 0.00 | 0.00 | 0.00 | 10 | 1018.2 |
| 20260506165447 | 69 | 235 | 2.0 | 2.0 | 0.00 | 0.00 | 0.00 | 10 | 1018.3 |
| 20260506164942 | 69 | 208 | 4.0 | 5.0 | 0.00 | 0.00 | 0.00 | 10 | 1018.2 |
| 20260506164439 | 69 | 218 | 2.0 | 2.0 | 0.00 | 0.00 | 0.00 | 10 | 1018.1 |
| 20260506163936 | 69 | 229 | 5.0 | 6.0 | 0.00 | 0.00 | 0.00 | 10 | 1018.2 |
| 20260506163431 | 70 | 237 | 7.0 | 8.0 | 0.00 | 0.00 | 0.00 | 10 | 1018.2 |
| 20260506162921 | 68 | 273 | 0.0 | 1.0 | 0.00 | 0.00 | 0.00 | 10 | 1018.1 |
| 20260506162419 | 68 | 211 | 3.0 | 3.0 | 0.00 | 0.00 | 0.00 | 10 | 1018.3 |
| 20260506161916 | 68 | 301 | 5.0 | 7.0 | 0.00 | 0.00 | 0.00 | 10 | 1018.0 |
| 20260506161414 | 68 | 282 | 5.0 | 7.0 | 0.00 | 0.00 | 0.00 | 10 | 1018.1 |
| 20260506160911 | 68 | 204 | 1.0 | 1.0 | 0.00 | 0.00 | 0.00 | 10 | 1018.3 |
| 20260506160408 | 67 | 195 | 6.0 | 8.0 | 0.00 | 0.00 | 0.00 | 10 | 1018.1 |
| 20260506155906 | 67 | 325 | 6.0 | 7.0 | 0.00 | 0.00 | 0.00 | 10 | 1018.3 |
| 20260506155403 | 66 | 299 | 2.0 | 2.0 | 0.00 | 0.00 | 0.00 | 10 | 1018.4 |
| 20260506153525 | 66 | 292 | 3.0 | 3.0 | 0.00 | 0.00 | 0.00 | 10 | 1018.1 |
| 20260506153023 | 66 | 248 | 0.0 | 1.0 | 0.00 | 0.00 | 0.00 | 10 | 1018.0 |
| 20260506152519 | 66 | 182 | 0.0 | 0.0 | 0.00 | 0.00 | 0.00 | 10 | 1018.4 |
| 20260506152018 | 66 | 170 | 0.0 | 0.0 | 0.00 | 0.00 | 0.00 | 10 | 1018.4 |
| 20260506151515 | 65 | 210 | 0.0 | 0.0 | 0.00 | 0.00 | 0.00 | 10 | 1018.5 |
| 20260506151012 | 64 | 210 | 2.0 | 2.0 | 0.00 | 0.00 | 0.00 | 10 | 1018.2 |
| 20260506150508 | 65 | 214 | 3.0 | 3.0 | 0.00 | 0.00 | 0.00 | 10 | 1018.1 |
| 20260506150005 | 64 | 189 | 0.0 | 0.0 | 0.00 | 0.00 | 0.00 | 10 | 1018.3 |
| 20260506145502 | 66 | 167 | 0.0 | 0.0 | 0.00 | 0.00 | 0.00 | 10 | 1018.0 |
| 20260506145000 | 66 | 176 | 0.0 | 1.0 | 0.00 | 0.00 | 0.00 | 10 | 1018.1 |
| 20260506144456 | 65 | 152 | 0.0 | 0.0 | 0.00 | 0.00 | 0.00 | 10 | 1018.0 |
| 20260506143954 | 65 | 158 | 0.0 | 1.0 | 0.00 | 0.00 | 0.00 | 10 | 1018.1 |
| 20260506143451 | 64 | 152 | 1.0 | 1.0 | 0.00 | 0.00 | 0.00 | 10 | 1017.8 |
| 20260506142949 | 64 | 105 | 2.0 | 2.0 | 0.00 | 0.00 | 0.00 | 10 | 1017.8 |
| 20260506142447 | 63 | 119 | 2.0 | 2.0 | 0.00 | 0.00 | 0.00 | 10 | 1017.9 |
| 20260506141944 | 62 | 131 | 1.0 | 1.0 | 0.00 | 0.00 | 0.00 | 10 | 1017.8 |
| 20260506141442 | 62 | 135 | 1.0 | 2.0 | 0.00 | 0.00 | 0.00 | 10 | 1017.6 |
| 20260506140941 | 61 | 146 | 0.0 | 1.0 | 0.00 | 0.00 | 0.00 | 10 | 1017.9 |
| 20260506140437 | 60 | 151 | 1.0 | 2.0 | 0.00 | 0.00 | 0.00 | 10 | 1017.7 |
| 20260506135934 | 59 | 127 | 1.0 | 2.0 | 0.00 | 0.00 | 0.00 | 10 | 1017.5 |
| 20260506135431 | 60 | 129 | 2.0 | 2.0 | 0.00 | 0.00 | 0.00 | 10 | 1017.2 |
| 20260506134927 | 61 | 166 | 0.0 | 0.0 | 0.00 | 0.00 | 0.00 | 10 | 1017.5 |
| 20260506134423 | 60 | 165 | 0.0 | 1.0 | 0.00 | 0.00 | 0.00 | 10 | 1017.3 |
| 20260506133921 | 59 | 182 | 2.0 | 2.0 | 0.00 | 0.00 | 0.00 | 10 | 1017.0 |
| 20260506133417 | 59 | 153 | 3.0 | 3.0 | 0.00 | 0.00 | 0.00 | 10 | 1017.0 |
| 20260506132914 | 58 | 173 | 1.0 | 1.0 | 0.00 | 0.00 | 0.00 | 10 | 1017.0 |
| 20260506132411 | 57 | 183 | 1.0 | 1.0 | 0.00 | 0.00 | 0.00 | 10 | 1016.9 |
| 20260506131909 | 56 | 205 | 0.0 | 0.0 | 0.00 | 0.00 | 0.00 | 10 | 1016.7 |
| 20260506131405 | 57 | 205 | 0.0 | 0.0 | 0.00 | 0.00 | 0.00 | 10 | 1016.9 |
| 20260506130902 | 58 | 207 | 0.0 | 0.0 | 0.00 | 0.00 | 0.00 | 10 | 1016.8 |
| 20260506130358 | 58 | 205 | 0.0 | 0.0 | 0.00 | 0.00 | 0.00 | 10 | 1016.4 |
| 20260506125857 | 57 | 205 | 0.0 | 0.0 | 0.00 | 0.00 | 0.00 | 10 | 1016.7 |
| 20260506125355 | 57 | 205 | 0.0 | 0.0 | 0.00 | 0.00 | 0.00 | 10 | 1016.6 |
| 20260506124853 | 58 | 207 | 0.0 | 0.0 | 0.00 | 0.00 | 0.00 | 10 | 1016.3 |
| 20260506124349 | 58 | 181 | 0.0 | 1.0 | 0.00 | 0.00 | 0.00 | 10 | 1016.4 |
| 20260506123847 | 58 | 193 | 1.0 | 1.0 | 0.00 | 0.00 | 0.00 | 10 | 1016.2 |
| 20260506123345 | 58 | 187 | 2.0 | 2.0 | 0.00 | 0.00 | 0.00 | 10 | 1016.0 |
| 20260506122842 | 58 | 176 | 1.0 | 1.0 | 0.00 | 0.00 | 0.00 | 10 | 1016.0 |
| 20260506122339 | 57 | 160 | 0.0 | 1.0 | 0.00 | 0.00 | 0.00 | 10 | 1016.0 |
| 20260506121837 | 56 | 159 | 1.0 | 1.0 | 0.00 | 0.00 | 0.00 | 10 | 1016.0 |
| 20260506121334 | 56 | 168 | 0.0 | 0.0 | 0.00 | 0.00 | 0.00 | 10 | 1016.0 |
| 20260506120831 | 56 | 174 | 1.0 | 1.0 | 0.00 | 0.00 | 0.00 | 10 | 1015.8 |
| 20260506120329 | 57 | 194 | 2.0 | 2.0 | 0.00 | 0.00 | 0.00 | 10 | 1015.8 |
| 20260506115826 | 57 | 202 | 0.0 | 1.0 | 0.00 | 0.00 | 0.00 | 10 | 1015.7 |
| 20260506115324 | 57 | 203 | 0.0 | 0.0 | 0.00 | 0.00 | 0.00 | 10 | 1015.8 |
| 20260506114822 | 59 | 286 | 1.0 | 1.0 | 0.00 | 0.00 | 0.00 | 10 | 1015.8 |
| 20260506114320 | 59 | 161 | 1.0 | 1.0 | 0.00 | 0.00 | 0.00 | 10 | 1015.7 |
| 20260506113818 | 58 | 160 | 0.0 | 1.0 | 0.00 | 0.00 | 0.00 | 10 | 1015.4 |
| 20260506113315 | 57 | 158 | 1.0 | 1.0 | 0.00 | 0.00 | 0.00 | 10 | 1015.7 |
| 20260506112811 | 57 | 134 | 2.0 | 2.0 | 0.00 | 0.00 | 0.00 | 10 | 1015.6 |
| 20260506112309 | 57 | 88 | 3.0 | 3.0 | 0.00 | 0.00 | 0.00 | 10 | 1015.5 |
| 20260506111806 | 59 | 169 | 0.0 | 0.0 | 0.00 | 0.00 | 0.00 | 10 | 1015.2 |
| 20260506111304 | 59 | 163 | 0.0 | 1.0 | 0.00 | 0.00 | 0.00 | 10 | 1015.3 |
| 20260506110801 | 59 | 156 | 1.0 | 2.0 | 0.00 | 0.00 | 0.00 | 10 | 1015.3 |
| 20260506110258 | 59 | 163 | 2.0 | 2.0 | 0.00 | 0.00 | 0.00 | 10 | 1015.2 |
| 20260506105755 | 59 | 159 | 3.0 | 3.0 | 0.00 | 0.00 | 0.00 | 10 | 1015.1 |
| 20260506105252 | 59 | 177 | 0.0 | 0.0 | 0.00 | 0.00 | 0.00 | 10 | 1015.1 |
| 20260506104749 | 59 | 163 | 0.0 | 0.0 | 0.00 | 0.00 | 0.00 | 10 | 1015.1 |
| 20260506104247 | 59 | 170 | 0.0 | 0.0 | 0.00 | 0.00 | 0.00 | 10 | 1015.0 |
| 20260506103744 | 60 | 170 | 0.0 | 0.0 | 0.00 | 0.00 | 0.00 | 10 | 1015.0 |
| 20260506103241 | 60 | 170 | 0.0 | 0.0 | 0.00 | 0.00 | 0.00 | 10 | 1015.0 |
| 20260506102739 | 60 | 169 | 0.0 | 0.0 | 0.00 | 0.00 | 0.00 | 10 | 1015.0 |
| 20260506102237 | 60 | 164 | 0.0 | 0.0 | 0.00 | 0.00 | 0.00 | 10 | 1015.1 |
| 20260506101734 | 59 | 164 | 0.0 | 0.0 | 0.00 | 0.00 | 0.00 | 10 | 1014.7 |
| 20260506101230 | 59 | 164 | 0.0 | 0.0 | 0.00 | 0.00 | 0.00 | 10 | 1014.8 |
| 20260506100728 | 59 | 164 | 0.0 | 0.0 | 0.00 | 0.00 | 0.00 | 10 | 1015.0 |
| 20260506100226 | 59 | 162 | 0.0 | 0.0 | 0.00 | 0.00 | 0.00 | 10 | 1014.7 |
| 20260506095724 | 59 | 153 | 0.0 | 0.0 | 0.00 | 0.00 | 0.00 | 10 | 1014.6 |
| 20260506095220 | 60 | 206 | 1.0 | 2.0 | 0.00 | 0.00 | 0.00 | 10 | 1014.6 |
| 20260506094717 | 60 | 162 | 3.0 | 3.0 | 0.00 | 0.00 | 0.00 | 10 | 1014.6 |
| 20260506094216 | 61 | 189 | 0.0 | 0.0 | 0.00 | 0.00 | 0.00 | 10 | 1014.7 |
| 20260506093714 | 62 | 162 | 1.0 | 1.0 | 0.00 | 0.00 | 0.00 | 10 | 1014.5 |
| 20260506093211 | 62 | 152 | 2.0 | 2.0 | 0.00 | 0.00 | 0.00 | 10 | 1014.3 |
| 20260506092709 | 62 | 196 | 0.0 | 0.0 | 0.00 | 0.00 | 0.00 | 10 | 1014.5 |
| 20260506092206 | 63 | 218 | 2.0 | 2.0 | 0.00 | 0.00 | 0.00 | 10 | 1014.4 |
| 20260506091704 | 62 | 155 | 0.0 | 0.0 | 0.00 | 0.00 | 0.00 | 10 | 1014.4 |
| 20260506091201 | 63 | 177 | 0.0 | 0.0 | 0.00 | 0.00 | 0.00 | 10 | 1014.5 |
| 20260506090659 | 63 | 187 | 0.0 | 0.0 | 0.00 | 0.00 | 0.00 | 10 | 1014.2 |
| 20260506090155 | 62 | 200 | 1.0 | 2.0 | 0.00 | 0.00 | 0.00 | 10 | 1014.3 |
| 20260506085652 | 63 | 193 | 1.0 | 1.0 | 0.00 | 0.00 | 0.00 | 10 | 1014.4 |
| 20260506085148 | 63 | 183 | 0.0 | 1.0 | 0.00 | 0.00 | 0.00 | 10 | 1014.3 |
| 20260506084645 | 63 | 196 | 0.0 | 1.0 | 0.00 | 0.00 | 0.00 | 10 | 1014.2 |
| 20260506084141 | 63 | 169 | 0.0 | 0.0 | 0.00 | 0.00 | 0.00 | 10 | 1014.1 |
| 20260506083638 | 62 | 189 | 0.0 | 0.0 | 0.00 | 0.00 | 0.00 | 10 | 1014.1 |
| 20260506083136 | 62 | 153 | 0.0 | 0.0 | 0.00 | 0.00 | 0.00 | 10 | 1014.1 |
| 20260506082633 | 62 | 161 | 0.0 | 0.0 | 0.00 | 0.00 | 0.00 | 10 | 1013.9 |
| 20260506082128 | 62 | 144 | 0.0 | 0.0 | 0.00 | 0.00 | 0.00 | 10 | 1014.2 |
| 20260506081627 | 62 | 156 | 0.0 | 0.0 | 0.00 | 0.00 | 0.00 | 10 | 1014.4 |
| 20260506081124 | 63 | 153 | 0.0 | 2.0 | 0.00 | 0.00 | 0.00 | 10 | 1014.0 |
| 20260506080622 | 63 | 150 | 2.0 | 2.0 | 0.00 | 0.00 | 0.00 | 10 | 1014.0 |
| 20260506080118 | 64 | 166 | 0.0 | 0.0 | 0.00 | 0.00 | 0.00 | 10 | 1014.0 |
| 20260506073102 | 64 | 185 | 0.0 | 0.0 | 0.00 | 0.00 | 0.00 | 10 | 1014.1 |
| 20260506072558 | 64 | 180 | 0.0 | 0.0 | 0.00 | 0.00 | 0.00 | 10 | 1014.0 |
| 20260506072057 | 64 | 191 | 0.0 | 0.0 | 0.00 | 0.00 | 0.00 | 10 | 1013.9 |
| 20260506071554 | 65 | 201 | 0.0 | 1.0 | 0.00 | 0.00 | 0.00 | 10 | 1013.9 |
| 20260506071051 | 65 | 214 | 1.0 | 1.0 | 0.00 | 0.00 | 0.00 | 10 | 1013.9 |
| 20260506070548 | 65 | 177 | 0.0 | 0.0 | 0.00 | 0.00 | 0.00 | 10 | 1013.9 |